| time (UTC) | temp F | wind direction | speed knots | gust knots | rain 1hr in | rain 24hr in | rain mn in | humidity % | barometer mb |
| 20260505224028 | 64 | 278 | 1.7 | 2.6 | 0.00 | 0.00 | 0.00 | 66 | 1017.0 |
| 20260505223525 | 65 | 193 | 3.5 | 5.2 | 0.00 | 0.00 | 0.00 | 65 | 1017.0 |
| 20260505223021 | 64 | 300 | 0.9 | 5.2 | 0.00 | 0.00 | 0.00 | 64 | 1017.0 |
| 20260505222518 | 64 | 312 | 1.7 | 7.0 | 0.00 | 0.00 | 0.00 | 65 | 1017.3 |
| 20260505222013 | 65 | 237 | 1.7 | 6.1 | 0.00 | 0.00 | 0.00 | 64 | 1017.3 |
| 20260505221511 | 64 | 192 | 3.5 | 6.1 | 0.00 | 0.00 | 0.00 | 65 | 1017.3 |
| 20260505221008 | 65 | 342 | 2.6 | 3.5 | 0.00 | 0.00 | 0.00 | 63 | 1017.3 |
| 20260505220504 | 63 | 258 | 7.0 | 7.8 | 0.00 | 0.00 | 0.00 | 65 | 1017.3 |
| 20260505220002 | 64 | 242 | 5.2 | 8.7 | 0.00 | 0.00 | 0.00 | 64 | 1017.3 |
| 20260505215500 | 64 | 239 | 5.2 | 9.6 | 0.00 | 0.00 | 0.00 | 64 | 1017.3 |
| 20260505214958 | 65 | 277 | 3.5 | 7.8 | 0.00 | 0.00 | 0.00 | 63 | 1017.6 |
| 20260505214456 | 65 | 216 | 4.3 | 6.1 | 0.00 | 0.00 | 0.00 | 63 | 1017.3 |
| 20260505213952 | 65 | 179 | 2.6 | 7.0 | 0.00 | 0.00 | 0.00 | 64 | 1017.3 |
| 20260505213450 | 64 | 289 | 0.0 | 7.0 | 0.00 | 0.00 | 0.00 | 65 | 1017.3 |
| 20260505212946 | 65 | 253 | 6.1 | 11.3 | 0.00 | 0.00 | 0.00 | 65 | 1017.6 |
| 20260505212443 | 65 | 330 | 0.9 | 7.0 | 0.00 | 0.00 | 0.00 | 66 | 1017.6 |
| 20260505211939 | 65 | 209 | 4.3 | 7.0 | 0.00 | 0.00 | 0.00 | 65 | 1017.3 |
| 20260505211437 | 65 | 273 | 0.9 | 7.0 | 0.00 | 0.00 | 0.00 | 64 | 1017.6 |
| 20260505210933 | 65 | 354 | 1.7 | 2.6 | 0.00 | 0.00 | 0.00 | 62 | 1017.6 |
| 20260505210431 | 65 | 247 | 3.5 | 7.8 | 0.00 | 0.00 | 0.00 | 59 | 1017.6 |
| 20260505205927 | 65 | 260 | 5.2 | 7.8 | 0.00 | 0.00 | 0.00 | 60 | 1017.3 |
| 20260505205426 | 66 | 198 | 2.6 | 7.0 | 0.00 | 0.00 | 0.00 | 61 | 1017.6 |
| 20260505204922 | 65 | 237 | 4.3 | 7.8 | 0.00 | 0.00 | 0.00 | 59 | 1017.6 |
| 20260505204420 | 66 | 252 | 4.3 | 8.7 | 0.00 | 0.00 | 0.00 | 59 | 1017.6 |
| 20260505203917 | 66 | 235 | 3.5 | 7.0 | 0.00 | 0.00 | 0.00 | 64 | 1017.3 |
| 20260505203413 | 65 | 170 | 5.2 | 8.7 | 0.00 | 0.00 | 0.00 | 61 | 1017.3 |
| 20260505202910 | 65 | 189 | 5.2 | 8.7 | 0.00 | 0.00 | 0.00 | 62 | 1017.3 |
| 20260505202406 | 65 | 242 | 3.5 | 8.7 | 0.00 | 0.00 | 0.00 | 62 | 1017.3 |
| 20260505201903 | 65 | 283 | 2.6 | 7.0 | 0.00 | 0.00 | 0.00 | 65 | 1017.3 |
| 20260505201400 | 64 | 356 | 3.5 | 7.8 | 0.00 | 0.00 | 0.00 | 67 | 1017.6 |
| 20260505200858 | 63 | 265 | 3.5 | 7.8 | 0.00 | 0.00 | 0.00 | 67 | 1017.6 |
| 20260505200355 | 64 | 235 | 3.5 | 6.1 | 0.00 | 0.00 | 0.00 | 67 | 1017.6 |
| 20260505195850 | 65 | 284 | 1.7 | 7.0 | 0.00 | 0.00 | 0.00 | 65 | 1017.6 |
| 20260505195348 | 65 | 286 | 2.6 | 7.8 | 0.00 | 0.00 | 0.00 | 63 | 1017.6 |
| 20260505194845 | 67 | 238 | 4.3 | 6.1 | 0.00 | 0.00 | 0.00 | 59 | 1017.6 |
| 20260505194342 | 65 | 239 | 1.7 | 3.5 | 0.00 | 0.00 | 0.00 | 64 | 1017.6 |
| 20260505193837 | 66 | 261 | 2.6 | 6.1 | 0.00 | 0.00 | 0.00 | 59 | 1017.6 |
| 20260505193336 | 65 | 287 | 1.7 | 7.0 | 0.00 | 0.00 | 0.00 | 61 | 1017.6 |
| 20260505192833 | 65 | 203 | 4.3 | 6.1 | 0.00 | 0.00 | 0.00 | 63 | 1017.6 |
| 20260505192331 | 65 | 294 | 1.7 | 7.0 | 0.00 | 0.00 | 0.00 | 63 | 1017.6 |
| 20260505191828 | 64 | 278 | 1.7 | 6.1 | 0.00 | 0.00 | 0.00 | 65 | 1017.6 |
| 20260505191327 | 64 | 273 | 1.7 | 7.0 | 0.00 | 0.00 | 0.00 | 62 | 1017.6 |
| 20260505190823 | 65 | 190 | 4.3 | 7.0 | 0.00 | 0.00 | 0.00 | 63 | 1017.6 |
| 20260505190319 | 65 | 306 | 1.7 | 7.0 | 0.00 | 0.00 | 0.00 | 63 | 1017.6 |
| 20260505185815 | 64 | 263 | 2.6 | 7.0 | 0.00 | 0.00 | 0.00 | 65 | 1018.0 |
| 20260505185311 | 65 | 246 | 3.5 | 6.1 | 0.00 | 0.00 | 0.00 | 65 | 1017.6 |
| 20260505184807 | 65 | 261 | 2.6 | 8.7 | 0.00 | 0.00 | 0.00 | 63 | 1017.6 |
| 20260505184305 | 66 | 286 | 3.5 | 3.5 | 0.00 | 0.00 | 0.00 | 64 | 1017.6 |
| 20260505183801 | 65 | 26 | 0.9 | 7.0 | 0.00 | 0.00 | 0.00 | 66 | 1017.6 |
| 20260505183258 | 64 | 217 | 2.6 | 6.1 | 0.00 | 0.00 | 0.00 | 67 | 1017.6 |
| 20260505182755 | 64 | 265 | 2.6 | 6.1 | 0.00 | 0.00 | 0.00 | 66 | 1017.6 |
| 20260505182252 | 63 | 323 | 0.9 | 5.2 | 0.00 | 0.00 | 0.00 | 68 | 1017.6 |
| 20260505181748 | 63 | 260 | 3.5 | 7.0 | 0.00 | 0.00 | 0.00 | 67 | 1017.6 |
| 20260505181246 | 64 | 267 | 4.3 | 6.1 | 0.00 | 0.00 | 0.00 | 66 | 1017.6 |
| 20260505180742 | 63 | 262 | 2.6 | 6.1 | 0.00 | 0.00 | 0.00 | 68 | 1017.6 |
| 20260505180239 | 64 | 302 | 2.6 | 3.5 | 0.00 | 0.00 | 0.00 | 66 | 1017.3 |
| 20260505175735 | 64 | 332 | 0.9 | 1.7 | 0.00 | 0.00 | 0.00 | 67 | 1017.3 |
| 20260505175232 | 63 | 349 | 0.9 | 7.0 | 0.00 | 0.00 | 0.00 | 69 | 1017.6 |
| 20260505174729 | 63 | 311 | 0.9 | 1.7 | 0.00 | 0.00 | 0.00 | 70 | 1017.3 |
| 20260505174226 | 63 | 221 | 3.5 | 5.2 | 0.00 | 0.00 | 0.00 | 70 | 1017.3 |
| 20260505173721 | 65 | 257 | 3.5 | 6.1 | 0.00 | 0.00 | 0.00 | 67 | 1017.3 |
| 20260505173219 | 64 | 280 | 1.7 | 2.6 | 0.00 | 0.00 | 0.00 | 69 | 1017.0 |
| 20260505172715 | 62 | 340 | 0.9 | 3.5 | 0.00 | 0.00 | 0.00 | 70 | 1017.6 |
| 20260505172212 | 63 | 289 | 1.7 | 3.5 | 0.00 | 0.00 | 0.00 | 68 | 1017.3 |
| 20260505171712 | 63 | 261 | 2.6 | 3.5 | 0.00 | 0.00 | 0.00 | 69 | 1017.3 |
| 20260505171210 | 65 | 243 | 2.6 | 5.2 | 0.00 | 0.00 | 0.00 | 67 | 1017.3 |
| 20260505170706 | 64 | 317 | 0.0 | 2.6 | 0.00 | 0.00 | 0.00 | 67 | 1017.0 |
| 20260505170203 | 64 | 349 | 1.7 | 5.2 | 0.00 | 0.00 | 0.00 | 68 | 1017.3 |
| 20260505165658 | 64 | 230 | 1.7 | 6.1 | 0.00 | 0.00 | 0.00 | 68 | 1017.0 |
| 20260505165154 | 65 | 235 | 2.6 | 3.5 | 0.00 | 0.00 | 0.00 | 64 | 1017.0 |
| 20260505164649 | 64 | 307 | 1.7 | 6.1 | 0.00 | 0.00 | 0.00 | 70 | 1017.0 |
| 20260505164147 | 63 | 329 | 1.7 | 3.5 | 0.00 | 0.00 | 0.00 | 70 | 1017.0 |
| 20260505163645 | 63 | 293 | 0.9 | 1.7 | 0.00 | 0.00 | 0.00 | 69 | 1017.0 |
| 20260505163143 | 63 | 241 | 3.5 | 5.2 | 0.00 | 0.00 | 0.00 | 68 | 1017.0 |
| 20260505162640 | 62 | 206 | 1.7 | 1.7 | 0.00 | 0.00 | 0.00 | 69 | 1017.0 |
| 20260505162138 | 62 | 256 | 2.6 | 5.2 | 0.00 | 0.00 | 0.00 | 70 | 1016.6 |
| 20260505161635 | 63 | 331 | 1.7 | 6.1 | 0.00 | 0.00 | 0.00 | 69 | 1016.6 |
| 20260505161132 | 63 | 353 | 1.7 | 2.6 | 0.00 | 0.00 | 0.00 | 68 | 1016.6 |
| 20260505160630 | 63 | 212 | 3.5 | 5.2 | 0.00 | 0.00 | 0.00 | 67 | 1016.6 |
| 20260505160127 | 64 | 356 | 0.0 | 3.5 | 0.00 | 0.00 | 0.00 | 67 | 1016.6 |
| 20260505153107 | 63 | 260 | 1.7 | 2.6 | 0.00 | 0.00 | 0.00 | 69 | 1016.3 |
| 20260505152603 | 63 | 325 | 0.9 | 1.7 | 0.00 | 0.00 | 0.00 | 69 | 1016.6 |
| 20260505152058 | 62 | 265 | 0.9 | 1.7 | 0.00 | 0.00 | 0.00 | 70 | 1016.6 |
| 20260505151554 | 61 | 343 | 0.0 | 0.9 | 0.00 | 0.00 | 0.00 | 72 | 1016.6 |
| 20260505151052 | 61 | 340 | 0.0 | 1.7 | 0.00 | 0.00 | 0.00 | 72 | 1016.3 |
| 20260505150548 | 62 | 317 | 0.0 | 1.7 | 0.00 | 0.00 | 0.00 | 71 | 1016.6 |
| 20260505140513 | 58 | 353 | 0.0 | 0.0 | 0.00 | 0.00 | 0.00 | 88 | 1016.0 |
| 20260505124926 | 56 | 334 | 0.0 | 0.0 | 0.00 | 0.00 | 0.00 | 88 | 1016.0 |
| 20260505124423 | 56 | 334 | 0.0 | 0.9 | 0.00 | 0.00 | 0.00 | 88 | 1016.0 |
| 20260505123919 | 55 | 320 | 0.0 | 0.0 | 0.00 | 0.00 | 0.00 | 88 | 1016.0 |
| 20260505123416 | 55 | 333 | 0.0 | 0.0 | 0.00 | 0.00 | 0.00 | 88 | 1015.6 |
| 20260505122912 | 55 | 335 | 0.0 | 0.0 | 0.00 | 0.00 | 0.00 | 88 | 1015.6 |
| 20260505122409 | 55 | 337 | 0.0 | 0.0 | 0.00 | 0.00 | 0.00 | 88 | 1016.0 |
| 20260505121906 | 55 | 337 | 0.0 | 0.0 | 0.00 | 0.00 | 0.00 | 88 | 1016.0 |
| 20260505121403 | 55 | 337 | 0.0 | 0.0 | 0.00 | 0.00 | 0.00 | 87 | 1016.0 |
| 20260505120859 | 56 | 339 | 0.0 | 0.0 | 0.00 | 0.00 | 0.00 | 87 | 1016.0 |
| 20260505120355 | 56 | 337 | 0.0 | 0.0 | 0.00 | 0.00 | 0.00 | 87 | 1016.0 |
| 20260505115854 | 56 | 335 | 0.0 | 0.0 | 0.00 | 0.00 | 0.00 | 86 | 1016.0 |
| 20260505115351 | 56 | 336 | 0.0 | 0.0 | 0.00 | 0.00 | 0.00 | 86 | 1016.0 |
| 20260505114849 | 57 | 337 | 0.0 | 0.0 | 0.00 | 0.00 | 0.00 | 86 | 1016.0 |
| 20260505114346 | 57 | 321 | 0.0 | 0.0 | 0.00 | 0.00 | 0.00 | 86 | 1016.0 |
| 20260505113842 | 57 | 325 | 0.0 | 0.0 | 0.00 | 0.00 | 0.00 | 86 | 1016.0 |
| 20260505113339 | 57 | 332 | 0.0 | 0.0 | 0.00 | 0.00 | 0.00 | 85 | 1016.0 |
| 20260505112834 | 57 | 307 | 0.0 | 0.0 | 0.00 | 0.00 | 0.00 | 85 | 1016.0 |
| 20260505112332 | 57 | 323 | 0.0 | 0.0 | 0.00 | 0.00 | 0.00 | 85 | 1016.0 |
| 20260505111827 | 57 | 330 | 0.9 | 0.9 | 0.00 | 0.00 | 0.00 | 84 | 1016.0 |
| 20260505111323 | 57 | 336 | 0.0 | 0.0 | 0.00 | 0.00 | 0.00 | 84 | 1016.0 |
| 20260505110819 | 58 | 323 | 0.0 | 0.0 | 0.00 | 0.00 | 0.00 | 83 | 1016.0 |
| 20260505110317 | 58 | 335 | 0.0 | 0.0 | 0.00 | 0.00 | 0.00 | 83 | 1015.6 |
| 20260505101751 | 58 | 330 | 0.0 | 0.0 | 0.00 | 0.00 | 0.00 | 81 | 1016.0 |
| 20260505101247 | 58 | 332 | 0.0 | 0.0 | 0.00 | 0.00 | 0.00 | 81 | 1016.0 |
| 20260505100743 | 59 | 340 | 0.0 | 0.0 | 0.00 | 0.00 | 0.00 | 81 | 1016.0 |
| 20260505100240 | 59 | 341 | 0.0 | 0.0 | 0.00 | 0.00 | 0.00 | 80 | 1016.3 |
| 20260505095736 | 59 | 342 | 0.0 | 0.0 | 0.00 | 0.00 | 0.00 | 79 | 1016.0 |
| 20260505095234 | 59 | 338 | 0.0 | 0.0 | 0.00 | 0.00 | 0.00 | 79 | 1016.0 |
| 20260505094729 | 59 | 334 | 0.0 | 0.0 | 0.00 | 0.00 | 0.00 | 78 | 1016.0 |
| 20260505094226 | 59 | 337 | 0.0 | 0.0 | 0.00 | 0.00 | 0.00 | 78 | 1016.3 |
| 20260505093722 | 59 | 315 | 0.9 | 0.9 | 0.00 | 0.00 | 0.00 | 77 | 1016.6 |
| 20260505093220 | 59 | 317 | 0.0 | 0.9 | 0.00 | 0.00 | 0.00 | 77 | 1016.3 |
| 20260505092716 | 59 | 335 | 0.0 | 0.0 | 0.00 | 0.00 | 0.00 | 77 | 1016.3 |
| 20260505092215 | 59 | 328 | 0.0 | 0.0 | 0.00 | 0.00 | 0.00 | 77 | 1016.6 |
| 20260505091712 | 59 | 331 | 0.0 | 0.0 | 0.00 | 0.00 | 0.00 | 77 | 1016.6 |
| 20260505091210 | 59 | 338 | 0.0 | 0.0 | 0.00 | 0.00 | 0.00 | 76 | 1016.6 |
| 20260505090707 | 59 | 338 | 0.0 | 0.0 | 0.00 | 0.00 | 0.00 | 75 | 1016.6 |
| 20260505090205 | 59 | 343 | 0.0 | 0.0 | 0.00 | 0.00 | 0.00 | 75 | 1016.6 |
| 20260505085702 | 59 | 340 | 0.0 | 0.0 | 0.00 | 0.00 | 0.00 | 76 | 1016.6 |
| 20260505085200 | 59 | 308 | 0.0 | 0.0 | 0.00 | 0.00 | 0.00 | 78 | 1016.6 |
| 20260505084657 | 59 | 336 | 0.0 | 0.0 | 0.00 | 0.00 | 0.00 | 79 | 1016.6 |
| 20260505084156 | 59 | 336 | 0.0 | 0.0 | 0.00 | 0.00 | 0.00 | 80 | 1017.0 |
| 20260505083653 | 58 | 332 | 0.0 | 0.0 | 0.00 | 0.00 | 0.00 | 81 | 1017.0 |
| 20260505083149 | 58 | 343 | 0.0 | 0.0 | 0.00 | 0.00 | 0.00 | 82 | 1017.0 |
| 20260505082646 | 58 | 339 | 0.0 | 0.0 | 0.00 | 0.00 | 0.00 | 84 | 1016.6 |
| 20260505082143 | 58 | 339 | 0.0 | 0.0 | 0.00 | 0.00 | 0.00 | 84 | 1017.0 |
| 20260505081638 | 59 | 340 | 0.0 | 0.0 | 0.00 | 0.00 | 0.00 | 85 | 1017.0 |
| 20260505081136 | 59 | 340 | 0.0 | 0.0 | 0.00 | 0.00 | 0.00 | 85 | 1016.6 |
| 20260505080633 | 59 | 338 | 0.0 | 0.0 | 0.00 | 0.00 | 0.00 | 85 | 1017.0 |
| 20260505080129 | 59 | 341 | 0.0 | 0.0 | 0.00 | 0.00 | 0.00 | 85 | 1017.0 |
| 20260505075625 | 59 | 339 | 0.0 | 0.0 | 0.00 | 0.00 | 0.00 | 85 | 1017.0 |
| 20260505075122 | 59 | 338 | 0.0 | 0.0 | 0.00 | 0.00 | 0.00 | 85 | 1017.0 |
| 20260505074619 | 59 | 304 | 0.0 | 0.0 | 0.00 | 0.00 | 0.00 | 85 | 1017.3 |
| 20260505074116 | 59 | 325 | 0.0 | 0.0 | 0.00 | 0.00 | 0.00 | 85 | 1017.3 |
| 20260505073614 | 59 | 341 | 0.0 | 0.0 | 0.00 | 0.00 | 0.00 | 86 | 1017.3 |
| 20260505073112 | 59 | 341 | 0.0 | 0.0 | 0.00 | 0.00 | 0.00 | 86 | 1017.3 |
| 20260505072607 | 59 | 346 | 0.0 | 0.0 | 0.00 | 0.00 | 0.00 | 86 | 1017.3 |
| 20260505072104 | 59 | 336 | 0.0 | 0.0 | 0.00 | 0.00 | 0.00 | 86 | 1017.3 |
| 20260505071559 | 59 | 340 | 0.0 | 0.0 | 0.00 | 0.00 | 0.00 | 86 | 1017.0 |
| 20260505071057 | 59 | 336 | 0.0 | 0.0 | 0.00 | 0.00 | 0.00 | 86 | 1017.3 |
| 20260505070554 | 59 | 308 | 0.9 | 0.9 | 0.00 | 0.00 | 0.00 | 86 | 1017.3 |
| 20260505070050 | 59 | 266 | 0.9 | 1.7 | 0.00 | 0.00 | 0.00 | 85 | 1017.3 |
| 20260505065546 | 59 | 286 | 0.0 | 0.9 | 0.00 | 0.00 | 0.00 | 85 | 1017.0 |
| 20260505065043 | 59 | 306 | 0.0 | 0.0 | 0.00 | 0.00 | 0.00 | 85 | 1017.0 |
| 20260505064540 | 59 | 339 | 0.0 | 0.9 | 0.00 | 0.00 | 0.00 | 85 | 1017.3 |
| 20260505064038 | 59 | 312 | 0.0 | 0.9 | 0.00 | 0.00 | 0.00 | 85 | 1017.3 |
| 20260505063535 | 59 | 340 | 0.0 | 0.0 | 0.00 | 0.00 | 0.00 | 86 | 1017.0 |
| 20260505063031 | 59 | 330 | 0.0 | 0.9 | 0.00 | 0.00 | 0.00 | 86 | 1017.3 |
| 20260505062528 | 59 | 331 | 0.0 | 0.9 | 0.00 | 0.00 | 0.00 | 86 | 1017.3 |
| 20260505062025 | 59 | 340 | 0.0 | 0.0 | 0.00 | 0.00 | 0.00 | 86 | 1017.6 |
| 20260505061523 | 59 | 339 | 0.0 | 0.9 | 0.00 | 0.00 | 0.00 | 86 | 1017.0 |
| 20260505061021 | 59 | 339 | 0.0 | 1.7 | 0.00 | 0.00 | 0.00 | 86 | 1017.3 |
| 20260505060518 | 59 | 272 | 2.6 | 2.6 | 0.00 | 0.00 | 0.00 | 86 | 1017.3 |
| 20260505060014 | 59 | 318 | 0.9 | 1.7 | 0.00 | 0.00 | 0.00 | 86 | 1017.3 |
| 20260505055510 | 59 | 335 | 0.0 | 0.9 | 0.00 | 0.00 | 0.00 | 86 | 1017.3 |
| 20260505055007 | 59 | 258 | 0.9 | 1.7 | 0.00 | 0.00 | 0.00 | 85 | 1017.3 |
| 20260505054504 | 59 | 331 | 0.0 | 2.6 | 0.00 | 0.00 | 0.00 | 85 | 1017.3 |
| 20260505054002 | 59 | 297 | 1.7 | 1.7 | 0.00 | 0.00 | 0.00 | 84 | 1017.6 |
| 20260505053459 | 59 | 323 | 0.0 | 0.0 | 0.00 | 0.00 | 0.00 | 84 | 1017.6 |
| 20260505052955 | 59 | 328 | 0.0 | 0.0 | 0.00 | 0.00 | 0.00 | 84 | 1017.3 |
| 20260505052453 | 59 | 258 | 0.0 | 0.9 | 0.00 | 0.00 | 0.00 | 84 | 1017.3 |
| 20260505051950 | 59 | 313 | 0.9 | 1.7 | 0.00 | 0.00 | 0.00 | 84 | 1017.3 |
| 20260505051446 | 59 | 303 | 0.9 | 0.9 | 0.00 | 0.00 | 0.00 | 84 | 1017.3 |
| 20260505050945 | 59 | 325 | 0.0 | 0.0 | 0.00 | 0.00 | 0.00 | 84 | 1017.6 |
| 20260505050443 | 59 | 317 | 0.0 | 1.7 | 0.00 | 0.00 | 0.00 | 84 | 1017.6 |
| 20260505041410 | 60 | 305 | 0.9 | 0.9 | 0.00 | 0.00 | 0.00 | 82 | 1017.6 |
| 20260505040907 | 60 | 281 | 0.9 | 1.7 | 0.00 | 0.00 | 0.00 | 82 | 1017.6 |
| 20260505040405 | 60 | 326 | 0.9 | 1.7 | 0.00 | 0.00 | 0.00 | 81 | 1017.6 |
| 20260505035901 | 60 | 334 | 0.9 | 1.7 | 0.00 | 0.00 | 0.00 | 80 | 1017.6 |
| 20260505035357 | 60 | 334 | 0.9 | 1.7 | 0.00 | 0.00 | 0.00 | 79 | 1017.6 |
| 20260505034855 | 60 | 296 | 1.7 | 2.6 | 0.00 | 0.00 | 0.00 | 78 | 1017.6 |
| 20260505034351 | 60 | 305 | 0.9 | 1.7 | 0.00 | 0.00 | 0.00 | 78 | 1017.6 |
| 20260505033848 | 60 | 290 | 2.6 | 3.5 | 0.00 | 0.00 | 0.00 | 77 | 1017.3 |
| 20260505033345 | 60 | 217 | 1.7 | 3.5 | 0.00 | 0.00 | 0.00 | 77 | 1017.3 |
| 20260505032844 | 60 | 304 | 1.7 | 3.5 | 0.00 | 0.00 | 0.00 | 77 | 1017.3 |
| 20260505032340 | 60 | 331 | 0.0 | 1.7 | 0.00 | 0.00 | 0.00 | 77 | 1017.6 |
| 20260505031837 | 60 | 359 | 0.9 | 1.7 | 0.00 | 0.00 | 0.00 | 75 | 1017.3 |
| 20260505031333 | 60 | 342 | 0.0 | 5.2 | 0.00 | 0.00 | 0.00 | 75 | 1017.3 |
| 20260505030831 | 60 | 326 | 0.9 | 2.6 | 0.00 | 0.00 | 0.00 | 75 | 1017.3 |
| 20260505030326 | 60 | 64 | 0.0 | 1.7 | 0.00 | 0.00 | 0.00 | 75 | 1017.3 |
| 20260505025822 | 60 | 301 | 0.9 | 2.6 | 0.00 | 0.00 | 0.00 | 75 | 1017.3 |
| 20260505025320 | 60 | 265 | 1.7 | 5.2 | 0.00 | 0.00 | 0.00 | 74 | 1017.0 |
| 20260505024818 | 60 | 6 | 1.7 | 3.5 | 0.00 | 0.00 | 0.00 | 75 | 1017.0 |
| 20260505024315 | 60 | 325 | 0.9 | 2.6 | 0.00 | 0.00 | 0.00 | 74 | 1017.0 |
| 20260505023813 | 60 | 298 | 3.5 | 5.2 | 0.00 | 0.00 | 0.00 | 75 | 1017.0 |
| 20260505023309 | 60 | 272 | 2.6 | 6.1 | 0.00 | 0.00 | 0.00 | 74 | 1017.0 |
| 20260505022807 | 61 | 341 | 0.9 | 3.5 | 0.00 | 0.00 | 0.00 | 74 | 1017.0 |
| 20260505022304 | 60 | 265 | 2.6 | 5.2 | 0.00 | 0.00 | 0.00 | 74 | 1017.0 |
| 20260505021801 | 61 | 293 | 1.7 | 5.2 | 0.00 | 0.00 | 0.00 | 75 | 1017.0 |
| 20260505021257 | 61 | 321 | 3.5 | 5.2 | 0.00 | 0.00 | 0.00 | 76 | 1017.3 |
| 20260505020753 | 61 | 132 | 4.3 | 6.1 | 0.00 | 0.00 | 0.00 | 76 | 1017.0 |
| 20260505020248 | 61 | 263 | 3.5 | 6.1 | 0.00 | 0.00 | 0.00 | 76 | 1017.0 |
| 20260505015746 | 61 | 161 | 3.5 | 6.1 | 0.00 | 0.00 | 0.00 | 76 | 1017.0 |
| 20260505015243 | 61 | 261 | 3.5 | 6.1 | 0.00 | 0.00 | 0.00 | 77 | 1017.0 |
| 20260505014740 | 61 | 232 | 3.5 | 5.2 | 0.00 | 0.00 | 0.00 | 78 | 1017.0 |
| 20260505014237 | 62 | 256 | 3.5 | 5.2 | 0.00 | 0.00 | 0.00 | 78 | 1017.0 |
| 20260505013734 | 61 | 222 | 3.5 | 6.1 | 0.00 | 0.00 | 0.00 | 78 | 1017.0 |
| 20260505013231 | 62 | 284 | 4.3 | 7.0 | 0.00 | 0.00 | 0.00 | 78 | 1017.0 |
| 20260505012729 | 62 | 250 | 2.6 | 5.2 | 0.00 | 0.00 | 0.00 | 76 | 1017.6 |
| 20260505012226 | 62 | 317 | 2.6 | 3.5 | 0.00 | 0.00 | 0.00 | 76 | 1017.3 |
| 20260505011722 | 62 | 215 | 3.5 | 7.0 | 0.00 | 0.00 | 0.00 | 75 | 1017.3 |
| 20260505011219 | 62 | 302 | 0.9 | 2.6 | 0.00 | 0.00 | 0.00 | 74 | 1017.3 |
| 20260505010714 | 62 | 251 | 3.5 | 6.1 | 0.00 | 0.00 | 0.00 | 73 | 1017.3 |
| 20260505010211 | 62 | 295 | 1.7 | 7.0 | 0.00 | 0.00 | 0.00 | 73 | 1017.3 |
| 20260505005708 | 62 | 208 | 0.9 | 7.8 | 0.00 | 0.00 | 0.00 | 72 | 1017.3 |
| 20260505005205 | 63 | 261 | 0.9 | 5.2 | 0.00 | 0.00 | 0.00 | 72 | 1017.3 |
| 20260505004702 | 63 | 333 | 0.0 | 2.6 | 0.00 | 0.00 | 0.00 | 70 | 1017.6 |
| 20260505004159 | 63 | 255 | 1.7 | 7.0 | 0.00 | 0.00 | 0.00 | 71 | 1017.3 |
| 20260505003656 | 63 | 336 | 1.7 | 7.8 | 0.00 | 0.00 | 0.00 | 74 | 1017.3 |
| 20260505003153 | 63 | 227 | 4.3 | 7.8 | 0.00 | 0.00 | 0.00 | 73 | 1017.3 |
| 20260505002649 | 63 | 316 | 1.7 | 5.2 | 0.00 | 0.00 | 0.00 | 73 | 1017.3 |
| 20260505002148 | 63 | 306 | 4.3 | 7.0 | 0.00 | 0.00 | 0.00 | 71 | 1017.6 |
| 20260505001644 | 63 | 304 | 2.6 | 5.2 | 0.00 | 0.00 | 0.00 | 73 | 1017.3 |
| 20260505001142 | 63 | 204 | 5.2 | 7.0 | 0.00 | 0.00 | 0.00 | 73 | 1017.3 |
| 20260505000638 | 63 | 202 | 2.6 | 7.0 | 0.00 | 0.00 | 0.00 | 74 | 1017.3 |
| 20260505000137 | 63 | 227 | 3.5 | 5.2 | 0.00 | 0.00 | 0.00 | 74 | 1017.3 |
| 20260504235632 | 63 | 268 | 3.5 | 6.1 | 0.00 | 0.00 | 0.00 | 75 | 1017.3 |
| 20260504235129 | 63 | 220 | 4.3 | 9.6 | 0.00 | 0.00 | 0.00 | 76 | 1017.3 |
| 20260504234626 | 64 | 235 | 3.5 | 8.7 | 0.00 | 0.00 | 0.00 | 74 | 1017.0 |
| 20260504234124 | 65 | 243 | 0.9 | 5.2 | 0.00 | 0.00 | 0.00 | 72 | 1017.0 |
| 20260504233619 | 64 | 246 | 3.5 | 7.8 | 0.00 | 0.00 | 0.00 | 73 | 1017.0 |
| 20260504233115 | 64 | 319 | 1.7 | 7.8 | 0.00 | 0.00 | 0.00 | 74 | 1017.0 |
| 20260504232613 | 64 | 253 | 5.2 | 8.7 | 0.00 | 0.00 | 0.00 | 74 | 1017.3 |
| 20260504232110 | 65 | 269 | 5.2 | 7.8 | 0.00 | 0.00 | 0.00 | 73 | 1017.0 |
| 20260504231607 | 65 | 318 | 2.6 | 6.1 | 0.00 | 0.00 | 0.00 | 74 | 1017.0 |
| 20260504231103 | 66 | 191 | 1.7 | 7.0 | 0.00 | 0.00 | 0.00 | 71 | 1017.3 |
| 20260504230559 | 66 | 280 | 3.5 | 7.8 | 0.00 | 0.00 | 0.00 | 72 | 1017.6 |
| 20260504230058 | 66 | 251 | 2.6 | 6.1 | 0.00 | 0.00 | 0.00 | 71 | 1017.6 |
| 20260504225555 | 66 | 210 | 0.9 | 2.6 | 0.00 | 0.00 | 0.00 | 71 | 1017.3 |
| 20260504225052 | 67 | 194 | 1.7 | 2.6 | 0.00 | 0.00 | 0.00 | 68 | 1017.3 |
| 20260504224549 | 66 | 312 | 3.5 | 3.5 | 0.00 | 0.00 | 0.00 | 69 | 1017.6 |